Location: Recife
(8.0585°S, 34.8848°W)
Time: 12:33:51
(UTC-03:00)

Vanguard 1 - Pass Details

Date: 19 April 2026
Orbit: 654 x 3817 km, 34.3° (Epoch: 11 May)

Event Time Altitude Azimuth Distance (km) Brightness Sun altitude
Rises 17:39:49 0° 237° (WSW) 4,715 14.3 -6.7°
Reaches altitude 10° 17:42:20 10° 238° (WSW) 4,032 14.0 -7.4°
Maximum altitude 17:53:58 82° 324° (NW) 2,623 12.2 -10.2°
Drops below altitude 10° 18:14:56 10° 50° (NE) 6,718 13.9 -15.3°
Sets 18:20:38 0° 51° (NE) 7,900 14.3 -16.7°
